EHI
0 0 0 0 0 0 0 0 0 0 0 0 0 0 0 0 0 0 0 0 0 0 0 0 0 0 0 0 0 0 0 0 0 0 0 0 0 0 0 0 0 0 0 0
0 0 0 0 0 0 0 0 0 0 0 0 0 0 0 0 0 0 0 0 0 0 0 0 0 0 0 0 0 0 0 0 0 0 0 0 0 0 0 0 0 0 0 0
0 0 0 0 0 0 0 0 0 0 0 0 0 0 0 0 0 0 0 0 0 0 0 0 0 0 0 0 0 0 0 0 0 0 0 0 0 0 0 0 0 0 0 0
0 0 0 0 0 0 0 0 0 0 0 0 0 0 0 0 0 0 0 0 0 0 0 0 0 0 0 0 0 0 0 0 0 0 0 0 0 0 0 0 0 0 0 0
0 0 0 0 0 0 0 0 0 0 0 0 0 0 0 0 0 0 0 0 0 0 0 0 0 0 0 0 0 0 0 0 0 0 0 0 0 0 0 0 0 0 0 0
0 0 0 0 0 0 0 0 0 0 0 0 0 0 0 0 0 0 0 0 0 0 0 0 0 0 0 0 0 0 0 0 0 0 0 0 0 0 0 0 0 0 0 0
0 0 0 0 0 0 0 0 0 0 0 0 0 0 0 0 0 0 0 0 0 0 0 0 0 0 0 0 0 0 0 0 0 0 0 0 0 0 0 0 0 0 0 0
0 0 0 0 0 0 0 0 0 0 0 0 0 0 0 0 0 0 0 0 0 0 0 0 0 0 0 0 0 0 0 0 0 0 0 0 0 0 0 0 0 0 0 0
0 0 0 0 0 0 0 0 0 0 0 0 0 0 0 0 0 0 0 0 0 0 0 0 0 0 0 0 0 0 0 0 0 0 0 0 0 0 0 0 0 0 0 0
0 0 0 0 0 0 0 0 0 0 0 0 0 0 0 0 0 0 0 0 0 0 0 0 0 0 0 0 0 0 0 0 0 0 0 0 0 0 0 0 0 0 0 0
0 0 0 0 0 0 0 0 0 0 0 0 0 0 0 0 0 0 0 0 0 0 0 0 0 0 0 0 0 0 0 0 0 0 0 0 0 0 0 0 0 0 0 0
0 0 0 0 0 0 0 0 0 0 0 0 0 0 0 0 0 0 0 0 0 0 0 0 0 0 0 0 0 0 0 0 0 0 0 0 0 0 0 0 0 0 0 0
0 0 0 0 0 0 0 0 0 0 0 0 0 0 0 0 0 0 0 0 0 0 0 0 0 0 0 0 0 0 0 0 0 0 0 0 0 0 0 0 0 0 0 0
0 0 0 0 0 0 0 0 0 0 0 0 0 0 0 0 0 0 0 0 0 0 0 0 0 0 0 0 0 0 0 0 0 0 0 0 0 0 0 0 0 0 0 0
0 0 0 0 0 0 0 0 0 0 0 0 0 0 0 0 0 0 0 0 0 0 0 0 0 0 0 0 0 0 0 0 0 0 0 0 0 0 0 0 0 0 0 0
0 0 0 0 0 0 0 0 0 0 0 0 0 0 0 0 0 0 0 0 0 0 0 0 0 0 0 0 0 0 0 0 0 0 0 0 0 0 0 0 0 0 0 0
0 0 0 0 0 0 0 0 0 0 0 0 0 0 0 0 0 0 0 0 0 0 0 0 0 0 0 0 0 0 0 0 0 0 0 0 0 0 0 0 0 0 0 0
0 0 0 0 0 0 0 0 0 0 0 0 0 0 0 0 0 0 0 0 0 0 0 0 0 0 0 0 0 0 0 0 0 0 0 0 0 0 0 0 0 0 0 0
0 0 0 0 0 0 0 0 0 0 0 0 0 0 0 0 0 0 0 0 0 0 0 0 0 0 0 0 0 0 0 0 0 0 0 0 0 0 0 0 0 0 0 0
0 0 0 0 0 0 0 0 0 0 0 0 0 0 0 0 0 0 0 0 0 0 0 0 0 0 0 0 0 0 0 0 0 0 0 0 0 0 0 0 0 0 0 0
0 0 0 0 0 0 0 0 0 0 0 0 0 0 0 0 0 0 0 0 0 0 0 0 0 0 0 0 0 0 0 0 0 0 0 0 0 0 0 0 0 0 0 0
0 0 0 0 0 0 0 0 0 0 0 0 0 0 0 0 0 0 0 0 0 0 0 0 0 0 0 0 0 0 0 0 0 0 0 0 0 0 0 0 0 0 0 0
0 0 0 0 0 0 0 0 0 0 0 0 0 0 0 0 0 0 0 0 0 0 0 0 0 0 0 0 0 0 0 0 0 0 0 0 0 0 0 0 0 0 0 0
0 0 0 0 0 0 0 0 0 0 0 0 0 0 0 0 0 0 0 0 0 0 0 0 0 0 0 0 0 0 0 0 0 0 0 0 0 0 0 0 0 0 0 0
0 0 0 0 0 0 0 0 0 0 0 0 0 0 0 0 0 0 0 0 0 0 0 0 0 0 0 0 0 0 0 0 0 0 0 0 0 0 0 0 0 0 0 0
0 0 0 0 0 0 0 0 0 0 0 0 0 0 0 0 0 0 0 0 0 0 0 0 0 0 0 0 0 0 0 0 0 0 0 0 0 0 0 0 0 0 0 0
0 0 0 0 0 0 0 0 0 0 0 0 0 0 0 0 0 0 0 0 0 0 0 0 0 0 0 0 0 0 0 0 0 0 0 0 0 0 0 0 0 0 0 0
Wind_Speed
9 9 9 11 12 12 14 14 11 11 12 15 12 11 11 10 9 8 8 8 8 7 7 6 6 6 6 6 5 5 5 5 5 4 3 3 2 1 1 1 1 1 2 2
7 6 8 13 16 16 17 18 19 20 20 15 11 9 10 10 9 9 9 9 8 8 8 7 7 7 6 6 6 6 6 6 5 4 4 3 3 2 1 1 0 1 1 2
5 6 9 11 10 13 11 12 12 15 13 9 9 9 9 9 9 10 10 9 9 8 8 8 7 7 7 6 6 6 7 6 5 5 5 4 3 3 2 2 1 1 1 1
6 7 7 0 2 5 9 11 13 14 13 11 11 10 10 10 10 10 9 9 8 8 7 7 6 6 6 5 6 6 6 6 6 6 5 5 4 4 3 2 2 2 1 1
3 6 10 6 2 4 6 7 8 13 13 11 8 8 7 5 6 8 8 8 7 7 7 6 6 5 5 6 6 6 7 7 7 7 6 6 6 5 4 3 3 2 2 1
4 6 8 1 2 2 3 5 1 5 7 5 3 6 4 3 5 7 7 6 6 6 6 6 5 5 6 6 7 8 7 7 6 6 7 7 6 5 4 4 3 2 2 2
8 8 10 5 2 4 4 3 2 2 5 4 5 7 8 8 8 7 7 7 6 5 5 5 4 5 7 7 8 7 5 5 6 6 7 6 5 5 5 4 3 3 3 2
7 8 10 4 6 6 4 4 4 5 6 7 9 11 11 10 9 8 7 7 6 5 5 4 4 6 7 8 6 4 5 6 6 6 6 5 6 5 5 5 4 4 3 3
9 9 3 4 7 5 4 7 8 8 9 10 11 12 12 11 10 9 8 7 6 6 6 5 5 6 8 6 4 5 5 6 6 6 6 6 6 6 5 5 4 3 3 3
9 12 12 11 12 11 11 11 11 11 12 11 13 13 13 11 10 9 8 7 6 6 7 6 5 6 7 5 4 5 6 6 5 6 6 6 5 5 5 5 5 4 4 3
12 13 12 10 9 9 9 10 11 12 12 12 13 14 13 11 10 9 8 7 6 6 7 7 6 6 6 5 6 6 6 6 6 6 6 6 5 5 5 5 5 4 4 3
11 10 9 11 9 11 12 13 13 13 14 12 12 13 12 11 10 9 8 7 6 7 8 7 6 6 5 5 6 7 6 6 5 5 5 5 5 4 5 5 6 8 6 4
13 12 13 15 14 13 14 14 14 13 14 14 12 11 11 11 9 8 8 8 8 8 8 7 6 6 6 6 6 7 7 6 5 5 5 5 5 5 4 5 7 8 8 7
13 12 14 12 13 13 13 13 13 12 12 11 10 10 9 9 9 9 9 8 8 7 7 7 7 7 6 6 7 7 6 6 6 5 5 5 5 5 4 4 4 4 6 8
11 11 13 14 13 12 11 10 11 11 10 9 8 8 8 9 9 9 8 7 6 7 7 7 7 7 5 6 7 7 6 5 5 5 5 5 5 5 4 5 4 3 3 4
9 10 11 12 12 12 10 10 10 11 10 9 9 9 9 9 9 9 8 6 7 8 7 7 8 6 5 6 7 6 5 7 6 5 5 5 5 5 5 5 4 4 4 4
9 9 8 9 10 11 10 9 9 10 9 9 9 9 8 8 8 8 7 6 7 8 7 7 7 5 6 7 7 5 5 6 8 5 5 5 5 5 5 5 5 5 4 4
8 10 10 10 10 10 10 9 8 9 8 9 9 8 7 8 9 8 7 6 6 7 7 7 6 5 6 6 6 5 5 5 5 5 5 5 5 5 5 5 5 5 4 4
6 7 8 8 8 8 9 9 9 8 8 7 7 8 8 8 8 8 6 6 7 8 6 5 7 6 6 7 7 5 5 6 5 5 5 6 6 5 5 5 5 5 4 4
5 6 7 8 7 7 8 9 9 9 8 7 7 8 8 8 7 7 6 7 7 6 4 4 6 6 6 7 8 5 6 6 6 5 5 5 5 5 5 5 5 5 5 5
6 7 7 8 8 8 8 8 8 9 8 7 7 8 8 8 7 6 6 7 6 5 5 7 5 5 6 6 9 6 6 6 6 6 6 5 5 5 5 5 5 5 5 4
6 7 8 9 9 10 8 7 7 9 9 8 8 8 8 8 7 7 7 7 6 5 4 4 5 7 8 8 6 6 6 6 6 5 5 5 5 5 5 5 5 5 5 4
8 8 9 9 10 10 10 9 8 8 8 9 8 8 9 8 6 6 7 5 4 6 5 5 6 9 11 7 6 6 6 7 6 6 6 6 6 5 5 6 5 5 5 5
9 10 10 9 9 10 11 11 8 7 8 9 9 9 8 7 7 6 6 7 7 7 5 7 10 11 11 6 6 6 6 6 6 6 6 5 5 5 5 5 5 5 5 5
10 10 10 9 9 9 10 9 9 9 9 7 9 9 7 7 7 6 5 6 8 8 6 7 10 11 8 5 6 6 6 6 6 6 6 6 5 5 5 5 5 5 5 4
11 10 10 10 10 9 8 7 7 7 7 7 7 6 6 5 6 6 5 6 7 8 6 5 5 7 6 6 6 6 6 6 7 6 6 6 6 6 5 5 6 5 5 4
10 10 9 9 9 8 8 8 8 8 7 7 8 7 6 5 5 6 6 5 5 5 5 5 5 5 5 6 6 6 5 5 5 6 6 6 5 5 5 6 5 4 4 4
Wind_Direction
268 270 261 256 248 228 224 231 246 258 264 274 283 285 287 286 281 274 267 260 255 253 250 244 238 235 232 230 220 214 217 223 229 230 229 230 231 232 242 271 305 327 336 344
275 266 263 262 252 242 240 241 248 263 274 280 290 281 278 279 276 270 268 266 261 257 255 248 241 236 228 225 216 211 217 221 220 219 216 217 221 220 214 223 281 317 335 349
280 306 292 265 246 223 220 224 232 247 257 280 284 281 282 285 279 271 272 273 268 260 253 249 242 233 229 222 209 209 216 217 212 212 213 210 209 214 218 219 223 239 287 330
294 311 261 260 121 219 231 247 235 248 264 277 287 295 290 278 273 276 279 275 269 262 256 252 245 233 228 216 207 209 215 215 210 209 211 206 205 211 218 219 224 235 260 300
272 287 281 288 222 202 228 269 238 243 263 280 298 295 276 261 257 273 283 281 277 270 263 255 243 230 219 214 211 213 217 216 210 207 207 204 204 206 206 210 217 223 238 264
240 264 265 315 119 167 230 268 238 237 268 291 292 293 321 343 299 288 289 286 281 274 263 253 242 223 217 218 215 221 221 216 208 205 206 207 205 201 198 205 214 214 225 245
233 250 268 274 158 168 242 353 22 276 280 277 265 286 312 313 305 297 295 294 285 272 260 253 236 218 223 224 226 226 218 208 204 203 206 206 200 197 194 197 201 208 220 230
207 226 252 165 160 210 291 342 309 297 291 285 281 289 293 295 294 293 293 290 280 268 263 255 229 220 227 231 231 217 206 205 205 204 199 196 196 193 194 195 201 207 216 227
214 233 279 185 227 263 296 288 292 291 292 292 288 287 290 289 288 286 284 283 275 264 264 253 230 226 235 236 217 204 204 207 205 200 197 194 196 194 192 196 206 210 215 224
254 261 268 270 270 271 270 273 282 286 287 286 283 285 286 285 282 280 277 275 271 262 258 255 240 235 241 234 208 204 208 207 201 197 196 195 197 198 199 200 205 210 215 222
254 272 286 275 267 279 286 285 286 286 282 279 281 281 282 282 280 276 272 268 262 255 257 259 249 240 235 220 205 206 208 204 199 198 196 194 198 202 207 210 212 212 215 218
254 268 273 285 293 295 291 291 292 293 290 284 278 278 280 279 277 274 270 267 260 256 256 259 250 242 229 213 205 204 204 203 199 194 193 193 191 195 211 220 219 225 229 229
266 282 282 286 289 287 286 290 292 289 287 287 284 280 278 277 276 272 268 263 259 258 258 257 249 243 228 211 206 207 208 202 196 194 192 192 193 196 197 203 217 224 225 227
266 276 279 280 286 291 290 292 292 288 283 281 282 282 279 276 274 269 265 263 263 262 258 252 246 243 226 208 206 209 209 202 197 196 192 192 194 198 201 198 198 206 215 224
265 261 269 284 289 290 291 293 292 289 289 288 284 280 277 274 273 272 271 269 263 258 253 247 245 243 217 205 205 206 203 199 195 193 190 189 189 194 198 203 209 208 205 212
284 281 276 279 283 289 294 292 287 288 291 290 288 284 280 277 276 275 272 262 254 254 251 245 245 239 212 205 204 202 202 195 190 189 186 186 189 194 197 200 205 210 214 213
277 283 285 289 292 294 293 289 284 286 288 287 288 290 287 281 277 273 270 262 256 259 256 247 245 229 206 204 201 198 194 190 188 190 191 191 194 199 200 202 207 212 216 211
260 269 277 280 286 292 295 294 288 285 282 285 291 288 281 275 274 277 278 274 265 263 255 243 232 215 206 202 199 194 190 188 190 195 193 194 197 198 201 206 210 214 215 212
276 273 277 279 279 281 284 288 289 285 283 284 285 282 279 275 274 277 277 267 260 263 257 226 211 207 206 200 190 192 190 188 189 193 193 197 199 199 200 205 209 212 211 209
287 286 288 289 287 278 280 285 288 287 284 281 281 281 281 279 277 274 269 263 255 256 251 223 212 210 205 198 189 192 192 192 192 191 192 196 199 201 202 206 208 210 211 213
295 296 296 294 294 289 283 284 284 284 286 280 272 273 277 281 278 270 266 271 268 243 236 226 217 211 202 194 190 192 192 194 194 194 194 196 198 201 202 204 206 208 211 213
288 289 291 293 294 295 292 285 278 278 280 277 273 272 275 277 276 268 256 258 270 247 234 227 218 210 202 193 193 193 194 195 195 195 196 197 198 200 203 204 206 206 208 211
284 285 286 286 286 289 291 286 278 275 274 273 271 269 266 267 266 263 270 259 251 245 239 233 221 212 204 197 194 195 197 197 197 197 198 198 200 201 202 204 206 205 207 208
278 278 279 281 283 283 284 285 279 272 269 270 266 262 261 266 265 250 252 262 256 250 245 234 225 218 208 202 197 197 199 200 199 198 198 196 197 198 199 200 202 205 206 208
272 274 274 275 275 273 274 279 281 276 272 269 269 264 254 247 253 265 264 259 255 253 248 237 229 220 209 203 200 201 201 202 199 194 196 196 197 198 199 198 200 201 203 207
268 271 272 268 267 270 273 272 271 272 272 273 274 268 261 254 252 256 258 256 252 248 244 236 224 215 208 203 202 202 201 202 203 201 198 197 199 198 197 198 200 203 204 206
265 267 270 271 267 259 257 257 259 263 261 261 270 271 265 261 255 252 251 250 246 240 235 227 217 211 207 203 201 200 199 198 198 197 195 196 197 198 197 196 198 199 200 203